C14KJ CYKF-CYKF

Flight info

Callsign C14KJ
Flight time 1h 39m
Altitude 3000
Route /
Aircraft C172/L-V/N

Departure

Time 2026-05-05 23:53
Airport Region of Waterloo International Airport (CYKF)

Arrival

Time 2026-05-06 01:32
Airport Region of Waterloo International Airport (CYKF)
Time Latitude Longitude Altitude Speed Heading
2026-05-05 23:19 43.45488 -80.38264 1027 ft 0 kts 216°
2026-05-05 23:42 43.45491 -80.38270 1027 ft 5 kts 338°
2026-05-05 23:43 43.45526 -80.38295 1027 ft 1 kts 358°
2026-05-05 23:43 43.45565 -80.38300 1027 ft 4 kts 11°
2026-05-05 23:43 43.45588 -80.38282 1027 ft 5 kts 21°
2026-05-05 23:43 43.45625 -80.38294 1027 ft 7 kts 308°
2026-05-05 23:44 43.45661 -80.38357 1027 ft 11 kts 311°
2026-05-05 23:44 43.45708 -80.38436 1027 ft 4 kts 308°
2026-05-05 23:44 43.45740 -80.38493 1027 ft 9 kts 308°
2026-05-05 23:44 43.45772 -80.38527 1027 ft 3 kts 19°
2026-05-05 23:45 43.45812 -80.38448 1027 ft 12 kts 68°
2026-05-05 23:45 43.45837 -80.38355 1027 ft 8 kts 65°
2026-05-05 23:45 43.45858 -80.38290 1028 ft 9 kts 61°
2026-05-05 23:45 43.45893 -80.38189 1029 ft 14 kts 62°
2026-05-05 23:46 43.45927 -80.38089 1031 ft 9 kts 64°
2026-05-05 23:46 43.45963 -80.37979 1031 ft 16 kts 60°
2026-05-05 23:46 43.46005 -80.37859 1033 ft 12 kts 67°
2026-05-05 23:46 43.46042 -80.37749 1034 ft 15 kts 63°
2026-05-05 23:47 43.46098 -80.37585 1038 ft 20 kts 66°
2026-05-05 23:47 43.46138 -80.37466 1040 ft 10 kts 64°
2026-05-05 23:47 43.46163 -80.37392 1041 ft 7 kts 66°
2026-05-05 23:47 43.46184 -80.37331 1041 ft 8 kts 68°
2026-05-05 23:48 43.46231 -80.37259 1043 ft 0 kts 60°
2026-05-05 23:48 43.46231 -80.37239 1044 ft 4 kts 118°
2026-05-05 23:48 43.46232 -80.37203 1044 ft 2 kts 44°
2026-05-05 23:48 43.46249 -80.37193 1044 ft 3 kts 17°
2026-05-05 23:49 43.46276 -80.37184 1044 ft 2 kts 14°
2026-05-05 23:49 43.46279 -80.37183 1044 ft 0 kts 14°
2026-05-05 23:49 43.46294 -80.37177 1044 ft 0 kts 12°
2026-05-05 23:50 43.46295 -80.37177 1044 ft 0 kts 11°
2026-05-05 23:50 43.46299 -80.37176 1044 ft 2 kts 10°
2026-05-05 23:50 43.46307 -80.37174 1044 ft 0 kts
2026-05-05 23:51 43.46327 -80.37173 1044 ft 4 kts 350°
2026-05-05 23:51 43.46352 -80.37188 1044 ft 6 kts 332°
2026-05-05 23:51 43.46365 -80.37271 1045 ft 17 kts 249°
2026-05-05 23:51 43.46249 -80.37627 1040 ft 63 kts 245°
2026-05-05 23:52 43.46061 -80.38248 1157 ft 72 kts 245°
2026-05-05 23:52 43.45851 -80.38848 1310 ft 70 kts 245°
2026-05-05 23:52 43.45598 -80.39495 1442 ft 77 kts 240°
2026-05-05 23:52 43.45302 -80.40117 1606 ft 79 kts 238°
2026-05-05 23:53 43.45007 -80.40750 1773 ft 80 kts 239°
2026-05-05 23:53 43.44682 -80.41363 1940 ft 82 kts 234°
2026-05-05 23:53 43.44456 -80.42069 2095 ft 81 kts 257°
2026-05-05 23:53 43.44297 -80.42815 2266 ft 81 kts 253°
2026-05-05 23:54 43.44083 -80.43527 2429 ft 81 kts 248°
2026-05-05 23:54 43.43859 -80.44250 2564 ft 84 kts 253°
2026-05-05 23:54 43.43617 -80.44993 2703 ft 87 kts 249°
2026-05-05 23:54 43.43364 -80.45751 2829 ft 89 kts 249°
2026-05-05 23:55 43.43091 -80.46512 2937 ft 86 kts 246°
2026-05-05 23:55 43.42817 -80.47176 2935 ft 76 kts 247°
2026-05-05 23:55 43.42540 -80.47829 2746 ft 85 kts 243°
2026-05-05 23:55 43.42257 -80.48550 2763 ft 87 kts 257°
2026-05-05 23:56 43.42146 -80.49335 2881 ft 80 kts 264°
2026-05-05 23:56 43.42194 -80.50074 3011 ft 77 kts 281°
2026-05-05 23:56 43.42315 -80.50801 3125 ft 75 kts 281°
2026-05-05 23:56 43.42433 -80.51532 3181 ft 77 kts 281°
2026-05-05 23:57 43.42602 -80.52256 3267 ft 79 kts 289°
2026-05-05 23:57 43.42779 -80.52953 3420 ft 75 kts 284°
2026-05-05 23:57 43.42971 -80.53684 3411 ft 83 kts 287°
2026-05-05 23:57 43.43164 -80.54491 3380 ft 90 kts 288°
2026-05-05 23:58 43.43385 -80.55240 3492 ft 79 kts 291°
2026-05-05 23:58 43.43794 -80.55703 3512 ft 91 kts 350°
2026-05-05 23:58 43.44449 -80.55569 3562 ft 101 kts 11°
2026-05-05 23:58 43.45103 -80.55139 3618 ft 107 kts 18°
2026-05-05 23:59 43.45809 -80.54705 3623 ft 114 kts 15°
2026-05-05 23:59 43.46558 -80.54268 3570 ft 121 kts 14°
2026-05-05 23:59 43.47375 -80.53853 3465 ft 128 kts 14°
2026-05-05 23:59 43.48201 -80.53388 3371 ft 124 kts 17°
2026-05-06 00:00 43.48970 -80.52956 3236 ft 109 kts 19°
2026-05-06 00:00 43.49578 -80.52618 3188 ft 84 kts 13°
2026-05-06 00:00 43.50089 -80.52264 3041 ft 86 kts 24°
2026-05-06 00:00 43.50617 -80.51859 3079 ft 84 kts 15°
2026-05-06 00:01 43.51117 -80.51551 3111 ft 83 kts 11°
2026-05-06 00:01 43.51745 -80.51190 2760 ft 109 kts 27°
2026-05-06 00:01 43.52293 -80.50476 2526 ft 108 kts 52°
2026-05-06 00:01 43.52657 -80.49564 2210 ft 113 kts 67°
2026-05-06 00:02 43.52948 -80.48659 2102 ft 97 kts 59°
2026-05-06 00:02 43.53237 -80.47903 2072 ft 81 kts 54°
2026-05-06 00:02 43.53559 -80.47252 1964 ft 89 kts 62°
2026-05-06 00:02 43.53691 -80.46507 2038 ft 75 kts 89°
2026-05-06 00:03 43.53638 -80.45826 2105 ft 75 kts 96°
2026-05-06 00:03 43.53491 -80.45065 2186 ft 84 kts 103°
2026-05-06 00:03 43.53382 -80.44139 2171 ft 106 kts 96°
2026-05-06 00:03 43.53287 -80.43175 2405 ft 97 kts 93°
2026-05-06 00:04 43.53245 -80.42284 2637 ft 91 kts 93°
2026-05-06 00:04 43.53217 -80.41421 2837 ft 90 kts 83°
2026-05-06 00:04 43.53271 -80.40540 2985 ft 95 kts 90°
2026-05-06 00:04 43.53329 -80.39661 3101 ft 96 kts 42°
2026-05-06 00:05 43.54321 -80.38710 3501 ft 82 kts
2026-05-06 00:05 43.54873 -80.38445 3651 ft 87 kts 14°
2026-05-06 00:05 43.55430 -80.38203 3756 ft 90 kts 356°
2026-05-06 00:06 43.56047 -80.38141 3997 ft 77 kts 342°
2026-05-06 00:06 43.56644 -80.38184 4058 ft 91 kts 347°
2026-05-06 00:06 43.57285 -80.38196 4149 ft 97 kts 350°
2026-05-06 00:06 43.58006 -80.38263 4131 ft 105 kts 340°
2026-05-06 00:07 43.58772 -80.38351 4161 ft 109 kts 348°
2026-05-06 00:07 43.59541 -80.38371 4184 ft 112 kts 350°
2026-05-06 00:07 43.60331 -80.38379 4175 ft 116 kts 353°
2026-05-06 00:07 43.61202 -80.38372 3934 ft 125 kts 355°
2026-05-06 00:08 43.62059 -80.38330 3720 ft 121 kts 357°
2026-05-06 00:08 43.62863 -80.38362 3554 ft 113 kts 350°
2026-05-06 00:08 43.63652 -80.38413 3382 ft 112 kts 355°
2026-05-06 00:08 43.64392 -80.38385 3342 ft 103 kts 357°
2026-05-06 00:09 43.65076 -80.38329 3364 ft 90 kts 359°
2026-05-06 00:09 43.65674 -80.38221 3307 ft 82 kts 360°
2026-05-06 00:09 43.66277 -80.38154 3146 ft 88 kts 358°
2026-05-06 00:09 43.66860 -80.38080 3097 ft 80 kts
2026-05-06 00:10 43.67416 -80.37961 3059 ft 78 kts
2026-05-06 00:10 43.67965 -80.37804 2972 ft 82 kts
2026-05-06 00:10 43.68500 -80.37631 2926 ft 80 kts
2026-05-06 00:10 43.69044 -80.37508 2893 ft 76 kts
2026-05-06 00:11 43.69573 -80.37468 2893 ft 68 kts 358°
2026-05-06 00:11 43.70080 -80.37394 2856 ft 72 kts 357°
2026-05-06 00:11 43.70575 -80.37339 2874 ft 70 kts 351°
2026-05-06 00:11 43.71050 -80.37422 2939 ft 65 kts 340°
2026-05-06 00:12 43.71476 -80.37636 3041 ft 67 kts 328°
2026-05-06 00:12 43.71965 -80.37827 3101 ft 76 kts 336°
2026-05-06 00:12 43.72497 -80.38151 3067 ft 83 kts 319°
2026-05-06 00:12 43.72983 -80.38609 3005 ft 85 kts 321°
2026-05-06 00:13 43.73291 -80.39287 2888 ft 87 kts 277°
2026-05-06 00:13 43.73245 -80.40088 2818 ft 80 kts 267°
2026-05-06 00:13 43.73026 -80.40797 2664 ft 83 kts 236°
2026-05-06 00:13 43.72719 -80.41419 2669 ft 77 kts 241°
2026-05-06 00:14 43.72425 -80.42012 2686 ft 75 kts 236°
2026-05-06 00:14 43.71975 -80.42466 2668 ft 77 kts 216°
2026-05-06 00:14 43.71537 -80.42869 2632 ft 74 kts 221°
2026-05-06 00:14 43.71109 -80.43240 2633 ft 71 kts 216°
2026-05-06 00:15 43.70673 -80.43569 2661 ft 70 kts 211°
2026-05-06 00:15 43.70236 -80.43791 2717 ft 70 kts 203°
2026-05-06 00:15 43.69773 -80.43883 2743 ft 73 kts 184°
2026-05-06 00:15 43.69278 -80.43961 2709 ft 68 kts 197°
2026-05-06 00:16 43.68811 -80.44127 2731 ft 69 kts 185°
2026-05-06 00:16 43.68305 -80.44038 2732 ft 83 kts 175°
2026-05-06 00:16 43.67723 -80.43958 2731 ft 84 kts 176°
2026-05-06 00:16 43.67150 -80.43926 2695 ft 83 kts 191°
2026-05-06 00:17 43.66593 -80.43918 2730 ft 78 kts 183°
2026-05-06 00:17 43.66063 -80.43877 2765 ft 77 kts 175°
2026-05-06 00:17 43.65536 -80.43697 2677 ft 94 kts 146°
2026-05-06 00:17 43.65094 -80.43931 2757 ft 81 kts 266°
2026-05-06 00:18 43.65451 -80.44284 2923 ft 80 kts 355°
2026-05-06 00:18 43.65983 -80.43980 3009 ft 87 kts 40°
2026-05-06 00:18 43.66329 -80.43258 3111 ft 90 kts 53°
2026-05-06 00:18 43.66643 -80.42479 3183 ft 96 kts 65°
2026-05-06 00:19 43.66812 -80.41585 3282 ft 95 kts 69°
2026-05-06 00:19 43.67078 -80.40736 3351 ft 96 kts 63°
2026-05-06 00:19 43.67292 -80.39851 3448 ft 95 kts 72°
2026-05-06 00:19 43.67428 -80.38937 3513 ft 100 kts 74°
2026-05-06 00:20 43.67622 -80.38046 3630 ft 98 kts 67°
2026-05-06 00:20 43.67890 -80.37147 3722 ft 98 kts 56°
2026-05-06 00:20 43.68123 -80.36271 3853 ft 97 kts 73°
2026-05-06 00:20 43.68413 -80.35409 3846 ft 101 kts 60°
2026-05-06 00:21 43.68761 -80.34628 3920 ft 97 kts 53°
2026-05-06 00:21 43.69126 -80.33805 3927 ft 104 kts 54°
2026-05-06 00:21 43.69481 -80.32922 3965 ft 103 kts 59°
2026-05-06 00:21 43.69820 -80.32069 3912 ft 103 kts 56°
2026-05-06 00:22 43.70179 -80.31165 3837 ft 108 kts 57°
2026-05-06 00:22 43.70552 -80.30219 3769 ft 117 kts 59°
2026-05-06 00:22 43.70798 -80.29129 3700 ft 120 kts 78°
2026-05-06 00:22 43.70993 -80.28020 3594 ft 117 kts 75°
2026-05-06 00:23 43.71137 -80.26978 3575 ft 106 kts 78°
2026-05-06 00:23 43.71258 -80.25990 3530 ft 102 kts 78°
2026-05-06 00:23 43.71357 -80.25025 3477 ft 102 kts 78°
2026-05-06 00:23 43.71459 -80.24071 3476 ft 97 kts 78°
2026-05-06 00:24 43.71553 -80.23157 3448 ft 98 kts 82°
2026-05-06 00:24 43.71640 -80.22230 3443 ft 96 kts 79°
2026-05-06 00:24 43.71732 -80.21343 3445 ft 95 kts 84°
2026-05-06 00:24 43.71767 -80.20488 3452 ft 85 kts 80°
2026-05-06 00:25 43.71869 -80.19643 3429 ft 89 kts 81°
2026-05-06 00:25 43.71943 -80.18810 3396 ft 88 kts 80°
2026-05-06 00:25 43.72044 -80.17985 3369 ft 86 kts 78°
2026-05-06 00:25 43.72102 -80.17162 3410 ft 84 kts 80°
2026-05-06 00:26 43.72177 -80.16324 3435 ft 90 kts 84°
2026-05-06 00:26 43.72234 -80.15474 3466 ft 91 kts 78°
2026-05-06 00:26 43.72279 -80.14587 3465 ft 91 kts 88°
2026-05-06 00:26 43.72295 -80.13700 3439 ft 94 kts 72°
2026-05-06 00:27 43.72453 -80.12824 3463 ft 97 kts 72°
2026-05-06 00:27 43.72600 -80.11866 3413 ft 104 kts 78°
2026-05-06 00:27 43.72677 -80.10886 3418 ft 103 kts 79°
2026-05-06 00:27 43.72796 -80.09930 3436 ft 101 kts 79°
2026-05-06 00:28 43.72872 -80.08983 3473 ft 95 kts 80°
2026-05-06 00:28 43.72946 -80.08069 3453 ft 95 kts 78°
2026-05-06 00:28 43.73025 -80.07173 3409 ft 93 kts 84°
2026-05-06 00:28 43.73048 -80.06357 3435 ft 77 kts 86°
2026-05-06 00:29 43.73135 -80.05574 3425 ft 87 kts 90°
2026-05-06 00:29 43.73212 -80.04729 3493 ft 90 kts 70°
2026-05-06 00:29 43.73215 -80.03845 3476 ft 92 kts 91°
2026-05-06 00:29 43.73320 -80.02966 3355 ft 91 kts 84°
2026-05-06 00:30 43.73409 -80.02143 3268 ft 90 kts 73°
2026-05-06 00:30 43.73534 -80.01316 3189 ft 88 kts 73°
2026-05-06 00:30 43.73699 -80.00501 3107 ft 86 kts 70°
2026-05-06 00:30 43.73785 -79.99663 3002 ft 89 kts 82°
2026-05-06 00:31 43.73903 -79.98844 2928 ft 86 kts 70°
2026-05-06 00:31 43.74049 -79.98026 2831 ft 88 kts 76°
2026-05-06 00:31 43.74157 -79.97176 2692 ft 96 kts 78°
2026-05-06 00:31 43.74266 -79.96323 2726 ft 83 kts 74°
2026-05-06 00:32 43.74382 -79.95518 2743 ft 85 kts 75°
2026-05-06 00:32 43.74490 -79.94720 2782 ft 85 kts 73°
2026-05-06 00:32 43.74679 -79.93945 2799 ft 88 kts 67°
2026-05-06 00:32 43.74784 -79.93112 2869 ft 81 kts 76°
2026-05-06 00:33 43.74887 -79.92293 2862 ft 88 kts 76°
2026-05-06 00:33 43.74974 -79.91444 2896 ft 90 kts 78°
2026-05-06 00:33 43.75082 -79.90597 2940 ft 90 kts 73°
2026-05-06 00:33 43.75206 -79.89765 2959 ft 91 kts 75°
2026-05-06 00:34 43.75335 -79.88887 2933 ft 94 kts 75°
2026-05-06 00:34 43.75444 -79.88019 2958 ft 91 kts 77°
2026-05-06 00:34 43.75532 -79.87118 2929 ft 95 kts 79°
2026-05-06 00:34 43.75693 -79.86258 2940 ft 93 kts 60°
2026-05-06 00:35 43.75969 -79.85434 2905 ft 97 kts 74°
2026-05-06 00:35 43.76086 -79.84544 2943 ft 92 kts 76°
2026-05-06 00:35 43.76230 -79.83664 2909 ft 96 kts 70°
2026-05-06 00:35 43.76379 -79.82769 2924 ft 94 kts 78°
2026-05-06 00:36 43.76494 -79.81865 2905 ft 96 kts 76°
2026-05-06 00:36 43.76620 -79.80965 2916 ft 95 kts 77°
2026-05-06 00:36 43.76733 -79.80077 2908 ft 96 kts 77°
2026-05-06 00:36 43.76836 -79.79163 2921 ft 93 kts 77°
2026-05-06 00:37 43.76923 -79.78257 2906 ft 96 kts 77°
2026-05-06 00:37 43.77026 -79.77361 2937 ft 92 kts 79°
2026-05-06 00:37 43.77110 -79.76468 2903 ft 96 kts 78°
2026-05-06 00:37 43.77218 -79.75551 2919 ft 94 kts 78°
2026-05-06 00:38 43.77168 -79.74657 2919 ft 95 kts 111°
2026-05-06 00:38 43.76896 -79.73819 2887 ft 99 kts 115°
2026-05-06 00:38 43.76514 -79.73029 2878 ft 97 kts 128°
2026-05-06 00:38 43.76100 -79.72322 2862 ft 96 kts 129°
2026-05-06 00:39 43.75665 -79.71608 2855 ft 96 kts 131°
2026-05-06 00:39 43.75239 -79.70896 2861 ft 95 kts 130°
2026-05-06 00:39 43.74818 -79.70194 2840 ft 97 kts 130°
2026-05-06 00:39 43.74394 -79.69481 2854 ft 95 kts 128°
2026-05-06 00:40 43.73956 -79.68771 2835 ft 97 kts 133°
2026-05-06 00:40 43.73490 -79.68101 2834 ft 97 kts 132°
2026-05-06 00:40 43.73048 -79.67384 2834 ft 96 kts 127°
2026-05-06 00:40 43.72626 -79.66653 2824 ft 97 kts 127°
2026-05-06 00:41 43.72204 -79.65909 2808 ft 103 kts 126°
2026-05-06 00:41 43.71783 -79.65113 2825 ft 102 kts 124°
2026-05-06 00:41 43.71350 -79.64322 2846 ft 101 kts 127°
2026-05-06 00:41 43.70939 -79.63538 2829 ft 104 kts 133°
2026-05-06 00:42 43.70452 -79.62819 2908 ft 98 kts 129°
2026-05-06 00:42 43.69993 -79.62068 2898 ft 104 kts 131°
2026-05-06 00:42 43.69525 -79.61316 2940 ft 104 kts 131°
2026-05-06 00:42 43.69062 -79.60536 2991 ft 104 kts 128°
2026-05-06 00:43 43.68594 -79.59754 3029 ft 105 kts 130°
2026-05-06 00:43 43.68144 -79.58981 3096 ft 104 kts 130°
2026-05-06 00:43 43.67677 -79.58222 3199 ft 101 kts 131°
2026-05-06 00:43 43.67196 -79.57481 3147 ft 107 kts 132°
2026-05-06 00:44 43.66683 -79.56736 3015 ft 106 kts 136°
2026-05-06 00:44 43.66163 -79.56008 2851 ft 107 kts 127°
2026-05-06 00:44 43.65784 -79.55124 2683 ft 107 kts 118°
2026-05-06 00:44 43.65416 -79.54227 2493 ft 107 kts 115°
2026-05-06 00:45 43.65113 -79.53328 2403 ft 102 kts 112°
2026-05-06 00:45 43.64844 -79.52450 2337 ft 98 kts 109°
2026-05-06 00:45 43.64648 -79.51572 2280 ft 94 kts 100°
2026-05-06 00:45 43.64510 -79.50670 2181 ft 95 kts 99°
2026-05-06 00:46 43.64353 -79.49797 2141 ft 93 kts 102°
2026-05-06 00:46 43.64173 -79.48928 2128 ft 95 kts 103°
2026-05-06 00:46 43.63956 -79.48074 2094 ft 97 kts 111°
2026-05-06 00:46 43.63664 -79.47207 1999 ft 98 kts 99°
2026-05-06 00:47 43.63769 -79.46326 1918 ft 92 kts 58°
2026-05-06 00:47 43.64073 -79.45521 1745 ft 99 kts 57°
2026-05-06 00:47 43.64410 -79.44670 1585 ft 99 kts 60°
2026-05-06 00:47 43.64618 -79.43777 1489 ft 98 kts 71°
2026-05-06 00:48 43.64754 -79.42889 1476 ft 92 kts 73°
2026-05-06 00:48 43.64909 -79.42023 1440 ft 94 kts 69°
2026-05-06 00:48 43.65091 -79.41164 1429 ft 92 kts 68°
2026-05-06 00:48 43.65276 -79.40321 1410 ft 92 kts 74°
2026-05-06 00:49 43.65350 -79.39439 1436 ft 93 kts 81°
2026-05-06 00:49 43.65387 -79.38522 1416 ft 95 kts 85°
2026-05-06 00:49 43.65337 -79.37632 1422 ft 96 kts 96°
2026-05-06 00:49 43.65201 -79.36720 1409 ft 94 kts 99°
2026-05-06 00:50 43.64732 -79.36079 1328 ft 101 kts 167°
2026-05-06 00:50 43.64167 -79.36426 1335 ft 93 kts 245°
2026-05-06 00:50 43.63954 -79.37222 1338 ft 88 kts 254°
2026-05-06 00:50 43.63762 -79.38056 1296 ft 89 kts 256°
2026-05-06 00:51 43.63603 -79.38864 1302 ft 87 kts 258°
2026-05-06 00:51 43.63485 -79.39684 1329 ft 84 kts 263°
2026-05-06 00:51 43.63369 -79.40469 1379 ft 85 kts 259°
2026-05-06 00:51 43.63303 -79.41309 1382 ft 93 kts 270°
2026-05-06 00:52 43.63304 -79.42212 1297 ft 92 kts 281°
2026-05-06 00:52 43.63508 -79.43030 1244 ft 90 kts 290°
2026-05-06 00:52 43.63649 -79.43841 1252 ft 85 kts 280°
2026-05-06 00:52 43.63599 -79.44627 1285 ft 85 kts 254°
2026-05-06 00:53 43.63303 -79.45373 1285 ft 88 kts 241°
2026-05-06 00:53 43.63016 -79.46089 1323 ft 82 kts 242°
2026-05-06 00:53 43.62694 -79.46716 1313 ft 82 kts 228°
2026-05-06 00:53 43.62214 -79.47199 1281 ft 88 kts 213°
2026-05-06 00:54 43.61672 -79.47607 1247 ft 92 kts 209°
2026-05-06 00:54 43.61072 -79.48058 1128 ft 100 kts 211°
2026-05-06 00:54 43.60522 -79.48587 1168 ft 90 kts 221°
2026-05-06 00:54 43.60059 -79.49182 1159 ft 91 kts 227°
2026-05-06 00:55 43.59656 -79.49830 1178 ft 88 kts 239°
2026-05-06 00:55 43.59398 -79.50588 1182 ft 88 kts 252°
2026-05-06 00:55 43.59219 -79.51408 1221 ft 89 kts 243°
2026-05-06 00:55 43.58858 -79.52133 1247 ft 90 kts 241°
2026-05-06 00:56 43.58563 -79.52898 1267 ft 92 kts 244°
2026-05-06 00:56 43.58128 -79.53541 1337 ft 91 kts 224°
2026-05-06 00:56 43.57658 -79.54119 1377 ft 93 kts 223°
2026-05-06 00:56 43.57179 -79.54685 1437 ft 89 kts 224°
2026-05-06 00:57 43.56713 -79.55267 1463 ft 88 kts 223°
2026-05-06 00:57 43.56198 -79.55798 1435 ft 94 kts 219°
2026-05-06 00:57 43.55723 -79.56407 1425 ft 94 kts 232°
2026-05-06 00:57 43.55345 -79.57114 1443 ft 90 kts 244°
2026-05-06 00:58 43.55164 -79.57900 1515 ft 83 kts 262°
2026-05-06 00:58 43.55012 -79.58639 1591 ft 83 kts 255°
2026-05-06 00:58 43.54822 -79.59340 1804 ft 72 kts 241°
2026-05-06 00:58 43.54579 -79.59985 1938 ft 72 kts 253°
2026-05-06 00:59 43.54475 -79.60683 2103 ft 73 kts 267°
2026-05-06 00:59 43.54395 -79.61402 2261 ft 76 kts 261°
2026-05-06 00:59 43.54226 -79.62076 2454 ft 77 kts 239°
2026-05-06 00:59 43.54047 -79.62780 2615 ft 78 kts 261°
2026-05-06 01:00 43.53966 -79.63535 2784 ft 80 kts 262°
2026-05-06 01:00 43.53867 -79.64290 2963 ft 80 kts 259°
2026-05-06 01:00 43.53740 -79.65046 3110 ft 83 kts 262°
2026-05-06 01:00 43.53616 -79.65823 3294 ft 82 kts 255°
2026-05-06 01:01 43.53527 -79.66585 3486 ft 79 kts 267°
2026-05-06 01:01 43.53474 -79.67363 3663 ft 78 kts 249°
2026-05-06 01:01 43.53308 -79.68074 3814 ft 79 kts 258°
2026-05-06 01:01 43.53197 -79.68825 3954 ft 78 kts 257°
2026-05-06 01:02 43.53055 -79.69544 4088 ft 77 kts 254°
2026-05-06 01:02 43.52882 -79.70239 4213 ft 77 kts 255°
2026-05-06 01:02 43.52774 -79.70956 4342 ft 74 kts 261°
2026-05-06 01:02 43.52706 -79.71704 4318 ft 80 kts 263°
2026-05-06 01:03 43.52674 -79.72517 4226 ft 88 kts 268°
2026-05-06 01:03 43.52708 -79.73354 4124 ft 90 kts 275°
2026-05-06 01:03 43.52822 -79.74219 4017 ft 89 kts 281°
2026-05-06 01:03 43.53012 -79.75050 3875 ft 94 kts 289°
2026-05-06 01:04 43.53314 -79.75822 3794 ft 92 kts 299°
2026-05-06 01:04 43.53537 -79.76615 3631 ft 95 kts 269°
2026-05-06 01:04 43.53504 -79.77553 3484 ft 94 kts 269°
2026-05-06 01:04 43.53411 -79.78415 3392 ft 91 kts 263°
2026-05-06 01:05 43.53313 -79.79256 3325 ft 87 kts 263°
2026-05-06 01:05 43.53250 -79.80124 3222 ft 91 kts 268°
2026-05-06 01:05 43.53159 -79.80978 3171 ft 88 kts 261°
2026-05-06 01:05 43.53059 -79.81781 3140 ft 85 kts 263°
2026-05-06 01:06 43.53001 -79.82588 3097 ft 85 kts 269°
2026-05-06 01:06 43.52996 -79.83401 3051 ft 83 kts 270°
2026-05-06 01:06 43.52893 -79.84193 2994 ft 84 kts 260°
2026-05-06 01:06 43.52776 -79.85001 2925 ft 86 kts 260°
2026-05-06 01:07 43.52603 -79.85976 2885 ft 84 kts 255°
2026-05-06 01:07 43.52483 -79.86783 2823 ft 86 kts 262°
2026-05-06 01:07 43.52377 -79.87578 2807 ft 83 kts 257°
2026-05-06 01:07 43.52277 -79.88351 2795 ft 80 kts 262°
2026-05-06 01:08 43.52178 -79.89145 2742 ft 83 kts 260°
2026-05-06 01:08 43.52076 -79.89925 2713 ft 82 kts 262°
2026-05-06 01:08 43.51991 -79.90723 2657 ft 85 kts 259°
2026-05-06 01:08 43.51862 -79.91557 2735 ft 88 kts 261°
2026-05-06 01:09 43.51772 -79.92398 2744 ft 91 kts 260°
2026-05-06 01:09 43.51682 -79.93243 2820 ft 87 kts 262°
2026-05-06 01:09 43.51585 -79.94088 2819 ft 91 kts 259°
2026-05-06 01:09 43.51472 -79.94938 2888 ft 88 kts 258°
2026-05-06 01:10 43.51343 -79.95773 2890 ft 91 kts 258°
2026-05-06 01:10 43.51199 -79.96612 2946 ft 89 kts 254°
2026-05-06 01:10 43.51060 -79.97452 2961 ft 91 kts 257°
2026-05-06 01:10 43.50939 -79.98302 3004 ft 90 kts 260°
2026-05-06 01:11 43.50824 -79.99151 3031 ft 91 kts 259°
2026-05-06 01:11 43.50714 -79.99997 3074 ft 90 kts 260°
2026-05-06 01:11 43.50608 -80.00854 3111 ft 89 kts 260°
2026-05-06 01:11 43.50501 -80.01679 3164 ft 88 kts 259°
2026-05-06 01:12 43.50380 -80.02513 3206 ft 87 kts 259°
2026-05-06 01:12 43.50264 -80.03327 3236 ft 89 kts 257°
2026-05-06 01:12 43.50132 -80.04183 3250 ft 90 kts 258°
2026-05-06 01:12 43.50033 -80.04999 3341 ft 83 kts 261°
2026-05-06 01:13 43.49949 -80.05815 3317 ft 89 kts 260°
2026-05-06 01:13 43.49863 -80.06657 3313 ft 89 kts 264°
2026-05-06 01:13 43.49842 -80.07503 3342 ft 86 kts 269°
2026-05-06 01:13 43.49746 -80.08334 3282 ft 93 kts 250°
2026-05-06 01:14 43.49882 -80.10018 3226 ft 71 kts 294°
2026-05-06 01:14 43.50064 -80.10667 3012 ft 86 kts 275°
2026-05-06 01:14 43.49998 -80.11494 2903 ft 86 kts 258°
2026-05-06 01:15 43.49991 -80.12266 2859 ft 83 kts 291°
2026-05-06 01:15 43.50337 -80.12859 2827 ft 76 kts 313°
2026-05-06 01:15 43.50800 -80.13258 2684 ft 82 kts 332°
2026-05-06 01:15 43.51311 -80.13515 2633 ft 76 kts 326°
2026-05-06 01:16 43.51504 -80.14177 2479 ft 80 kts 274°
2026-05-06 01:16 43.51600 -80.14915 2435 ft 79 kts 281°
2026-05-06 01:16 43.51725 -80.15654 2407 ft 77 kts 282°
2026-05-06 01:16 43.51820 -80.16376 2380 ft 77 kts 275°
2026-05-06 01:17 43.51907 -80.17106 2363 ft 76 kts 276°
2026-05-06 01:17 43.51952 -80.17827 2334 ft 76 kts 269°
2026-05-06 01:17 43.51873 -80.18547 2311 ft 76 kts 253°
2026-05-06 01:17 43.51633 -80.19218 2253 ft 79 kts 234°
2026-05-06 01:18 43.51422 -80.19880 2232 ft 73 kts 259°
2026-05-06 01:18 43.51326 -80.20556 2205 ft 73 kts 259°
2026-05-06 01:18 43.51210 -80.21216 2201 ft 70 kts 255°
2026-05-06 01:18 43.51088 -80.21880 2167 ft 81 kts 257°
2026-05-06 01:19 43.50965 -80.22626 2262 ft 81 kts 255°
2026-05-06 01:19 43.50812 -80.23400 2339 ft 84 kts 253°
2026-05-06 01:19 43.50650 -80.24161 2362 ft 81 kts 254°
2026-05-06 01:19 43.50511 -80.24812 2429 ft 66 kts 248°
2026-05-06 01:20 43.50354 -80.25408 2451 ft 67 kts 249°
2026-05-06 01:20 43.50180 -80.26030 2452 ft 73 kts 247°
2026-05-06 01:20 43.49974 -80.26678 2482 ft 74 kts 244°
2026-05-06 01:20 43.49749 -80.27327 2469 ft 79 kts 244°
2026-05-06 01:21 43.49511 -80.28037 2441 ft 83 kts 245°
2026-05-06 01:21 43.49268 -80.28770 2412 ft 85 kts 244°
2026-05-06 01:21 43.49006 -80.29504 2335 ft 79 kts 245°
2026-05-06 01:21 43.48776 -80.30170 2229 ft 77 kts 245°
2026-05-06 01:22 43.48552 -80.30837 2081 ft 76 kts 246°
2026-05-06 01:22 43.48328 -80.31510 1965 ft 78 kts 245°
2026-05-06 01:22 43.48092 -80.32193 1840 ft 79 kts 246°
2026-05-06 01:22 43.47855 -80.32890 1713 ft 82 kts 246°
2026-05-06 01:23 43.47617 -80.33606 1594 ft 81 kts 244°
2026-05-06 01:23 43.47375 -80.34234 1555 ft 70 kts 227°
2026-05-06 01:23 43.47030 -80.34695 1587 ft 68 kts 222°
2026-05-06 01:23 43.46623 -80.34797 1627 ft 70 kts 137°
2026-05-06 01:24 43.46398 -80.34266 1761 ft 64 kts 82°
2026-05-06 01:24 43.46470 -80.33646 1859 ft 62 kts 56°
2026-05-06 01:24 43.46781 -80.33213 1986 ft 62 kts 22°
2026-05-06 01:24 43.46999 -80.33643 2008 ft 78 kts 261°
2026-05-06 01:25 43.46618 -80.34297 1999 ft 98 kts 225°
2026-05-06 01:25 43.46109 -80.34961 1981 ft 104 kts 225°
2026-05-06 01:25 43.45687 -80.35745 2069 ft 99 kts 242°
2026-05-06 01:25 43.45385 -80.36571 2245 ft 95 kts 244°
2026-05-06 01:26 43.45095 -80.37371 2409 ft 94 kts 243°
2026-05-06 01:26 43.44747 -80.38144 2539 ft 96 kts 237°
2026-05-06 01:26 43.44385 -80.38911 2673 ft 95 kts 236°
2026-05-06 01:26 43.44000 -80.39625 2819 ft 90 kts 229°
2026-05-06 01:27 43.43587 -80.40297 2788 ft 97 kts 235°
2026-05-06 01:27 43.43259 -80.41084 2812 ft 93 kts 245°
2026-05-06 01:27 43.43012 -80.41886 2849 ft 91 kts 249°
2026-05-06 01:27 43.42821 -80.42714 2829 ft 90 kts 252°
2026-05-06 01:28 43.42612 -80.43533 2740 ft 88 kts 252°
2026-05-06 01:28 43.42387 -80.44307 2550 ft 90 kts 249°
2026-05-06 01:28 43.42153 -80.45082 2452 ft 79 kts 263°
2026-05-06 01:28 43.42365 -80.45697 2365 ft 79 kts 320°
2026-05-06 01:29 43.42868 -80.45942 2311 ft 77 kts
2026-05-06 01:29 43.43298 -80.45582 2195 ft 83 kts 48°
2026-05-06 01:29 43.43615 -80.44977 2107 ft 71 kts 52°
2026-05-06 01:29 43.43893 -80.44373 1949 ft 78 kts 58°
2026-05-06 01:30 43.44151 -80.43715 1843 ft 77 kts 61°
2026-05-06 01:30 43.44381 -80.43057 1761 ft 78 kts 63°
2026-05-06 01:30 43.44612 -80.42389 1658 ft 73 kts 62°
2026-05-06 01:30 43.44833 -80.41752 1511 ft 75 kts 64°
2026-05-06 01:31 43.45063 -80.41087 1404 ft 78 kts 62°
2026-05-06 01:31 43.45299 -80.40419 1309 ft 77 kts 63°
2026-05-06 01:31 43.45526 -80.39753 1206 ft 76 kts 64°
2026-05-06 01:31 43.45754 -80.39092 1080 ft 76 kts 63°
2026-05-06 01:32 43.45944 -80.38522 1029 ft 51 kts 64°
2026-05-06 01:32 43.46082 -80.38118 1031 ft 45 kts 65°
2026-05-06 01:32 43.46184 -80.37801 1035 ft 15 kts 70°
2026-05-06 01:32 43.46191 -80.37727 1037 ft 5 kts 119°
2026-05-06 01:33 43.46156 -80.37686 1037 ft 3 kts 163°
2026-05-06 01:33 43.46126 -80.37687 1036 ft 7 kts 206°
2026-05-06 01:33 43.46086 -80.37709 1035 ft 4 kts 201°
2026-05-06 01:33 43.46079 -80.37712 1035 ft 0 kts 201°
2026-05-06 01:34 43.46070 -80.37717 1034 ft 5 kts 202°
2026-05-06 01:34 43.46029 -80.37791 1034 ft 14 kts 244°
2026-05-06 01:34 43.45972 -80.37958 1031 ft 21 kts 244°
2026-05-06 01:34 43.45910 -80.38139 1029 ft 19 kts 244°
2026-05-06 01:35 43.45859 -80.38291 1028 ft 16 kts 244°
2026-05-06 01:35 43.45812 -80.38425 1027 ft 17 kts 245°
2026-05-06 01:35 43.45782 -80.38513 1027 ft 6 kts 246°
2026-05-06 01:35 43.45761 -80.38576 1027 ft 9 kts 217°
2026-05-06 01:36 43.45698 -80.38507 1027 ft 15 kts 128°
2026-05-06 01:36 43.45625 -80.38379 1027 ft 17 kts 129°
2026-05-06 01:36 43.45576 -80.38296 1027 ft 7 kts 125°
2026-05-06 01:36 43.45531 -80.38229 1027 ft 8 kts 148°
2026-05-06 01:37 43.45496 -80.38241 1027 ft 3 kts 220°
2026-05-06 01:37 43.45488 -80.38251 1027 ft 0 kts 220°
2026-05-06 01:37 43.45480 -80.38261 1027 ft 0 kts 226°